Terminal Aerodrome Forecast
Issued by NWS Sterling, VA

Current Version | Previous Version | Graphics & Text | Print | Product List | Glossary On
Versions: 1 2 3 4 5 6 7 8 9 10 11 12 13 14 15 16 17
000
FTUS41 KLWX 031916 AAA
TAFMRB
TAF AMD
KMRB 031916Z 0319/0418 15011G16KT P6SM OVC035
     FM032000 15006KT 6SM -FZRA BR OVC007
     FM040400 22006KT 4SM BR OVC012
     FM041200 28005KT 3SM BR OVC010=

USA.gov is the U.S. government's official web portal to all federal, state and local government web resources and services.